Regional Weather Roundup
Issued by NWS

Home | Current Version | Previous Version | Text Only | Print | Product List | Glossary On
Versions: 1 2 3 4 5 6 7 8 9 10 11 12 13 14 15 16 17 18 19 20 21 22 23 24 25 26 27 28
000
ASPQ40 PGUM 271412
RWRPQ
WEATHER ROUNDUP FOR THE MARIANAS AND MICRONESIA
NATIONAL WEATHER SERVICE TIYAN GU
1200 AM CHST WED JUN 28 2017

GUZ001>004-271500-
MARIANA ISLANDS-

CITY           SKY/WX    TMP DP  RH WIND       PRES   REMARKS
GUAM AIRPORT   MOCLDY    79  75  89 E7        29.93F
ANDERSEN AFB   MOCLDY    81  75  83 E14       29.94F
ROTA AIRPORT   NOT AVBL
TINIAN AP      NOT AVBL
SAIPAN AP      PTCLDY    84  77  79 E14       29.94S HX  94

$$

PMZ161-271500-
REPUBLIC OF PALAU-

CITY           SKY/WX    TMP DP  RH WIND       PRES   REMARKS
KOROR AP       MOCLDY    77  75  94 CALM      29.86S
KOROR WSO      MOCLDY    81  79  94 CALM      29.87F

$$

PMZ171>174-271500-
FEDERATED STATES OF MICRONESIA-

CITY           SKY/WX    TMP DP  RH WIND       PRES   REMARKS
YAP AIRPORT    MOCLDY    81  75  83 VRB6      29.86F
CHUUK AP       CLOUDY    82  79  89 VRB6      29.87F HX  93
POHNPEI AP     NOT AVBL
POHNPEI WSO    MOCLDY    79  77  94 VRB2      29.86F
KOSRAE AP      NOT AVBL

$$

PMZ181-271500-
REPUBLIC OF THE MARSHALL ISLANDS-

CITY           SKY/WX    TMP DP  RH WIND       PRES   REMARKS
KWAJALEIN AP   PTCLDY    82  75  78 E16       29.83F
MAJURO AP      NOT AVBL
MAJURO WSO     PTCLDY    82  77  83 E7        29.80F HX  91

$$





USA.gov is the U.S. government's official web portal to all federal, state and local government web resources and services.